This is the latest recevied weather packets stored in our database for station/object N2PPN. If no packets are shown the sender has not sent any weather packets the latest 10 day(s).
| Time | Temp. | Humidity | Pressure | Rain* | Wind** | Luminosity | Snow |
|---|---|---|---|---|---|---|---|
| 1778077261 | 15° C | 89% | 1013.4 hPa | 0 mm | - | 175 W/m² | - |
| 1778076958 | 15° C | 89% | 1013.7 hPa | 0 mm | - | 163 W/m² | - |
| 1778076656 | 15° C | 88% | 1013.7 hPa | 0 mm | - | 179 W/m² | - |
| 1778076353 | 15.56° C | 88% | 1013.6 hPa | 0 mm | - | 242 W/m² | - |
| 1778076050 | 15° C | 88% | 1013.7 hPa | 0 mm | - | 270 W/m² | - |
| 1778075747 | 15.56° C | 88% | 1013.5 hPa | 0 mm | - | 327 W/m² | - |
| 1778075443 | 15° C | 88% | 1013.6 hPa | 0 mm | - | 414 W/m² | - |
| 1778075139 | 15.56° C | 88% | 1013.8 hPa | 0 mm | - | 234 W/m² | - |
| 1778074835 | 15° C | 87% | 1013.9 hPa | 0 mm | - | 346 W/m² | - |
| 1778074533 | 15° C | 89% | 1013.9 hPa | 0 mm | - | 371 W/m² | - |
| 1778074230 | 15° C | 89% | 1013.7 hPa | 0 mm | - | 191 W/m² | - |
| 1778073927 | 15° C | 89% | 1013.8 hPa | 0 mm | - | 215 W/m² | - |
| 1778073624 | 15° C | 89% | 1013.5 hPa | 0 mm | - | 350 W/m² | - |
| 1778073321 | 15° C | 89% | 1013.7 hPa | 0 mm | - | 401 W/m² | - |
| 1778073018 | 15° C | 89% | 1013.7 hPa | 0 mm | - | 314 W/m² | - |
| 1778072715 | 14.44° C | 90% | 1013.5 hPa | 0 mm | - | 279 W/m² | - |
| 1778072412 | 14.44° C | 90% | 1013.8 hPa | 0 mm | - | 291 W/m² | - |
| 1778072111 | 14.44° C | 90% | 1013.7 hPa | 0 mm | - | 189 W/m² | - |
| 1778071808 | 14.44° C | 90% | 1013.4 hPa | 0 mm | - | 156 W/m² | - |
| 1778071505 | 15° C | 89% | 1013.4 hPa | 0 mm | - | 140 W/m² | - |
| 1778071203 | 15° C | 89% | 1013.3 hPa | 0 mm | - | 152 W/m² | - |
| 1778070901 | 15° C | 89% | 1013.5 hPa | 0 mm | - | 160 W/m² | - |
| 1778070599 | 15° C | 88% | 1013.6 hPa | 0 mm | - | 171 W/m² | - |
| 1778070295 | 15° C | 89% | 1013.8 hPa | 0 mm | - | 261 W/m² | - |
| 1778069994 | 15° C | 89% | 1013.8 hPa | 0 mm | - | 234 W/m² | - |
* Rain latest hour (hover to see other rain measurements)
** Current wind speed in m/s (hover to see current wind gust speed)